IRNSS-1D

Last updated on Thu Jul 03 2025 00:02:46 GMT+0000 (Coordinated Universal Time)

1 40547U 15018A 25183.58882214 -.00000268 00000+0 00000+0 0 9997 2 40547 26.7351 246.0543 0022977 192.0589 166.5233 1.00268747 37473
UTC large
Height (km)
Speed (km/s)
/
Latitude / Longitude
Inclination (degrees)
Orbital Period (minutes)
Azimuth
Elevation
Range (km)
Doppler Factor

Next 0 passes for location: London (51.5072 / 0.1276)

Sorry there are no passes over London.